Starlink 3807

operational
NORAD ID: 52353 Int'l Des: 2022-045 Owner: SPXS Country: US Constellation: starlink
LEOCIRCULAR

Starlink 3807について

説明を読み込み中...

リアルタイム位置

3D地球を読み込み中...

次回通過

高度履歴

Altitude vs Time

uPlot chart will show altitude changes over time

軌道要素

1 52353U 22045Y 26035.24137256 -.00001734 00000-0 -90947-4 0 9997
2 52353 53.2196 349.2777 0001217 95.0155 265.0976 15.08827950210734
Epoch: Feb 4, 2026 • Age: 15 hours

現在のステータス

高度 540.9 km
速度 7.59 km/s
衛星直下点 -2.27°S, 79.5°E
打ち上げ日 Apr 29, 2022
運用期間 3.7 years
タイプ internet

技術仕様

分類 Payload
質量 297.00 kg
乾燥質量 275.00 kg
総質量 297.00 kg
長さ 0.20 m
直径 2.80 m
スパン 9.00 m
形状 Box + pan
製造者 SPXS
バスタイプ Starlink
フェーズステータス In Orbit
所有者/国 SPXS/US

大規模コンステレーション

Loading constellations...